CAPE
0 0 0 0 1 520 1550 2490 2110 2172 2067 1533 1181 815 716 551 495 575 681 490 313 313 135 172 130 261 265 182 86 85 139 142
0 0 0 0 99 1014 1706 2330 2069 2358 1703 1067 911 637 610 339 280 320 350 383 268 192 166 157 59 192 140 151 93 64 52 85
0 0 0 0 481 1314 1809 2182 2066 2005 1327 1263 946 771 465 588 507 266 156 34 16 7 46 71 27 52 54 67 70 58 84 152
0 0 0 15 540 1286 1739 2071 2047 1843 1404 1230 868 571 353 377 221 183 691 502 431 305 181 97 4 63 14 5 24 48 52 94
0 0 0 8 580 1171 1619 1921 1875 1758 1466 1121 782 495 292 284 207 263 391 276 223 195 172 101 76 9 1 4 12 45 69 143
0 0 0 0 425 998 1645 1718 1642 1607 1336 1040 772 472 242 164 197 219 118 27 4 23 16 21 7 10 0 3 0 38 73 170
19 17 16 8 137 1162 1810 1541 1607 1199 1275 1022 817 486 175 128 237 281 14 12 5 5 1 3 2 1 1 1 0 10 71 123
427 224 59 17 345 1201 1716 1416 1504 1038 1149 1057 710 401 167 87 233 109 11 8 7 4 1 0 1 1 1 2 3 44 113 102
18 598 342 276 377 1222 1213 897 837 713 1035 1008 594 215 114 62 220 29 11 5 11 4 4 1 1 1 1 1 3 35 75 128
0 41 445 633 903 925 563 490 498 541 1185 854 377 194 69 60 148 94 45 11 4 5 6 4 1 2 1 1 1 0 3 94
0 0 144 804 912 431 258 311 415 497 966 550 136 86 37 54 75 71 97 82 17 17 4 10 5 1 2 4 1 0 1 7
0 0 0 532 481 256 160 332 271 363 531 118 82 50 49 44 35 43 24 46 30 49 25 4 3 2 0 2 1 0 0 0
0 0 2 63 350 338 348 180 142 145 134 7 40 15 38 10 5 10 14 19 27 24 46 13 3 2 2 2 4 1 0 3
0 0 2 4 1 62 17 17 41 29 18 6 46 23 8 4 8 2 30 23 24 37 27 11 7 4 2 0 0 0 0 0
0 0 1 3 4 1 1 4 23 14 8 7 7 8 8 14 2 16 17 10 19 13 14 29 11 5 3 2 0 0 0 0
0 1 2 1 4 2 2 1 0 0 0 0 1 0 4 5 3 0 4 4 2 6 12 18 3 0 0 0 0 3 4 1
1 0 1 2 3 3 1 2 1 0 1 1 0 0 1 1 0 0 1 0 0 0 0 0 0 0 0 0 0 0 0 0
4 3 3 3 4 4 3 3 1 0 1 1 1 1 1 1 0 0 1 1 1 2 2 0 1 1 0 0 0 0 0 0
18 6 3 5 2 5 3 4 3 2 1 2 2 1 1 1 1 1 2 2 2 2 2 3 2 1 0 0 0 0 1 2
CIN
-0 -0 -0 -0 -5 -32 -33 -56 -93 -67 -32 -88 -106 -150 -110 -84 -62 -35 -3 -3 -5 -2 -2 -13 -2 -0 -0 -0 -3 -9 -14 -8
-0 -0 -0 -0 -35 -21 -35 -70 -91 -45 -96 -182 -159 -190 -113 -135 -110 -79 -37 -10 -11 -6 -10 -2 -18 -4 -1 -0 -1 -11 -41 -25
-0 -0 -0 -0 -29 -39 -38 -77 -81 -84 -171 -130 -144 -144 -126 -82 -64 -88 -79 -98 -52 -8 -25 -0 -3 -2 -1 -0 -2 -5 -29 -21
-0 -0 -0 -18 -36 -54 -58 -66 -64 -91 -129 -100 -139 -154 -149 -117 -117 -80 -0 -0 -0 -0 -12 -9 -21 -9 -28 -23 -2 -6 -17 -13
-0 -0 -0 -3 -39 -51 -51 -52 -67 -89 -99 -116 -168 -169 -159 -115 -88 -15 -0 -0 -0 -2 -2 -1 -0 -4 -0 -32 -3 -10 -14 -0
-0 -0 -0 -0 -11 -47 -49 -73 -85 -93 -108 -127 -156 -140 -129 -116 -71 -33 -49 -53 -0 -16 -24 -4 -7 -10 -0 -21 -0 -8 -12 -1
-1 -1 -3 -0 -3 -28 -26 -103 -77 -165 -107 -134 -130 -134 -150 -133 -78 -53 -57 -0 -0 -0 -0 -0 -0 -0 -0 -0 -9 -12 -7 -8
-0 -8 -2 -6 -7 -26 -39 -125 -98 -184 -120 -115 -138 -164 -189 -177 -106 -102 -1 -1 -0 -0 -0 -0 -0 -0 -0 -0 -1 -3 -0 -7
-39 -0 -0 -7 -2 -1 -88 -200 -210 -237 -123 -101 -153 -215 -216 -236 -117 -177 -0 -0 -0 -0 -0 -0 -0 -0 -0 -36 -0 -1 -1 -4
-0 -275 -26 -27 -8 -117 -222 -235 -248 -235 -81 -110 -202 -227 -265 -265 -146 -127 -93 -7 -0 -0 -0 -0 -0 -0 -0 -0 -0 -0 -49 -5
-0 -0 -78 -8 -72 -221 -262 -225 -228 -187 -76 -152 -262 -268 -288 -254 -187 -137 -102 -79 -0 -0 -0 -0 -0 -0 -0 -0 -0 -0 -16 -18
-0 -0 -0 -66 -152 -232 -272 -200 -238 -178 -138 -266 -288 -277 -266 -259 -239 -159 -151 -107 -0 -0 -1 -0 -0 -0 -0 -0 -0 -0 -0 -0
-0 -0 -0 -34 -110 -144 -165 -257 -251 -226 -198 -18 -324 -301 -245 -10 -1 -1 -1 -0 -0 -1 -0 -2 -0 -0 -0 -0 -0 -0 -0 -0
-0 -0 -0 -0 -0 -100 -213 -260 -257 -259 -230 -4 -278 -327 -6 -0 -1 -1 -1 -1 -0 -0 -0 -1 -0 -0 -0 -0 -0 -0 -0 -0
-0 -0 -0 -0 -0 -0 -0 -107 -204 -152 -0 -0 -2 -31 -0 -2 -0 -1 -0 -0 -0 -3 -0 -0 -5 -0 -0 -0 -0 -0 -0 -0
-0 -0 -0 -0 -0 -0 -0 -0 -0 -0 -0 -0 -0 -0 -0 -0 -0 -0 -0 -0 -0 -0 -2 -0 -0 -0 -0 -0 -0 -0 -0 -0
-0 -0 -0 -0 -0 -0 -0 -0 -0 -0 -0 -0 -0 -0 -0 -0 -0 -0 -0 -0 -0 -0 -0 -0 -0 -0 -0 -0 -0 -0 -0 -0
-0 -0 -0 -0 -0 -0 -0 -0 -0 -0 -0 -0 -0 -0 -0 -0 -0 -0 -0 -0 -0 -0 -0 -0 -0 -0 -0 -0 -0 -0 -0 -0
-0 -0 -0 -0 -0 -0 -0 -0 -0 -0 -0 -0 -0 -0 -0 -0 -0 -0 -0 -0 -0 -0 -0 -0 -0 -0 -0 -0 -0 -0 -0 -0
Wind_Speed
17 19 20 19 16 17 19 16 17 16 11 9 8 6 8 7 7 6 11 9 12 8 5 5 8 8 9 9 11 8 12 10
16 19 21 12 14 17 20 19 18 13 9 10 9 7 8 7 7 8 8 7 9 9 6 8 10 12 10 13 9 12 11 11
19 18 19 13 15 17 19 20 20 14 12 11 9 8 7 8 8 9 10 9 9 7 7 7 10 10 11 12 13 9 8 9
17 18 20 16 16 17 19 20 19 16 16 10 9 8 6 7 8 9 12 14 14 13 14 10 7 12 11 13 12 14 9 10
17 18 20 19 17 17 18 19 19 18 17 13 14 11 9 9 8 8 7 6 9 10 13 11 12 9 12 13 11 10 11 12
16 20 19 20 19 16 17 18 19 18 17 14 12 11 8 8 7 5 9 6 5 7 8 12 13 9 15 16 13 9 9 12
10 10 14 17 19 17 16 19 19 18 17 16 15 13 10 8 7 7 6 4 3 3 1 8 13 10 12 14 16 15 11 12
15 9 14 16 17 18 17 18 16 19 18 16 14 13 11 10 10 8 7 5 4 5 6 3 5 9 12 12 15 16 12 11
12 18 11 11 12 17 16 16 14 16 19 16 13 12 8 7 9 7 6 6 6 8 6 5 4 7 9 9 9 10 9 10
15 19 7 7 11 15 14 14 14 18 18 14 13 11 10 9 11 11 8 8 8 8 8 9 7 6 8 8 5 5 4 3
16 19 22 6 15 13 10 11 14 17 15 12 11 11 10 10 10 10 9 10 10 11 10 9 9 8 7 9 7 6 6 3
14 17 20 11 11 11 11 12 12 12 13 11 12 9 10 9 8 8 8 7 8 10 11 10 11 11 9 8 8 9 9 8
13 16 17 12 5 8 9 11 13 9 12 12 12 9 8 9 7 8 7 7 8 7 9 10 10 11 11 12 12 12 13 13
14 15 15 16 13 4 7 7 11 8 7 9 9 10 7 9 7 3 7 6 5 7 8 8 9 9 9 10 11 12 12 12
12 13 14 14 14 12 13 2 7 7 8 9 7 7 8 8 7 3 6 6 5 4 5 7 8 7 9 10 10 9 9 10
13 13 12 14 14 13 13 12 12 9 12 11 10 10 8 8 9 11 6 8 5 6 3 5 7 11 8 6 2 9 9 8
12 12 13 13 14 13 13 12 12 10 13 12 11 10 11 12 12 12 12 12 12 13 13 12 11 7 11 7 4 3 6 4
11 12 12 12 12 11 12 12 11 11 13 12 11 11 12 12 12 13 13 13 13 14 13 13 12 11 11 7 8 10 10 10
9 9 12 11 11 11 10 11 12 12 14 13 11 12 13 12 14 14 13 12 13 12 12 12 12 12 19 18 18 13 13 13
Wind_Direction
237 230 224 220 217 197 184 181 191 188 174 171 189 175 194 184 192 194 191 192 204 192 191 171 171 172 173 165 167 193 231 148
237 231 228 208 211 186 183 178 189 186 165 176 184 178 195 191 194 180 187 195 196 193 198 194 183 172 171 178 173 195 242 158
228 235 224 188 201 191 182 181 188 170 185 179 184 194 193 195 191 188 198 188 189 188 182 181 186 170 176 181 176 182 219 168
235 227 227 177 206 190 191 183 190 177 195 172 171 180 184 195 192 204 208 202 200 201 207 189 197 178 179 181 177 182 184 189
238 236 229 187 199 191 195 183 188 182 190 177 179 181 186 201 206 207 202 210 223 222 201 187 193 192 177 184 178 182 180 182
233 234 238 232 182 192 193 181 184 178 189 182 177 189 192 183 189 180 196 190 222 239 218 208 193 202 181 180 181 178 198 186
299 293 279 231 178 179 177 180 186 175 184 186 187 186 184 161 173 183 174 184 167 145 311 200 190 165 178 175 177 192 203 203
327 291 262 249 165 174 173 171 177 183 182 183 183 179 186 186 175 179 168 165 160 159 134 95 171 170 169 177 175 184 202 197
332 329 283 236 178 179 158 169 174 173 189 177 175 178 189 182 172 174 172 172 160 158 146 125 116 146 155 160 174 176 194 191
345 337 289 224 175 136 158 169 177 180 187 170 167 183 173 184 166 165 171 171 175 161 157 156 143 144 145 141 137 141 124 161
357 346 332 230 121 143 157 178 181 186 174 162 168 176 176 178 175 177 177 174 170 177 164 164 157 151 148 150 151 142 153 164
4 349 341 68 124 147 163 184 170 190 161 169 168 175 157 164 163 181 187 180 176 173 171 175 169 165 165 163 170 173 186 190
21 3 353 357 101 162 182 153 160 179 177 173 168 166 151 153 171 158 178 180 161 186 169 178 175 176 175 180 180 183 189 195
30 13 6 359 358 105 110 139 157 170 156 168 172 144 158 154 162 188 168 150 159 151 159 169 172 175 181 190 196 192 196 206
39 22 10 4 360 16 22 111 143 149 147 146 149 151 156 152 144 165 133 135 132 153 157 158 174 177 188 194 200 203 205 209
37 31 14 11 358 19 21 27 32 81 86 78 65 55 71 90 73 46 81 63 42 44 148 158 73 63 34 6 273 201 213 222
38 40 26 18 7 14 25 24 37 54 74 73 64 62 67 70 69 70 67 68 60 60 54 58 56 52 3 13 354 357 47 21
40 42 36 22 16 14 29 35 34 56 66 64 65 63 65 65 67 65 61 58 60 59 56 55 47 21 356 35 45 69 69 56
22 41 42 25 17 22 38 40 43 50 60 61 59 71 70 69 70 63 63 64 60 61 58 53 47 31 47 64 73 76 70 61